Casa Grande, AZ

9:36 AM MST on October 23, 2019 (GMT -0700)
Casa Grande Municipal

Weather History for KCGZ - September, 2019

Change the Weather History Date:

Tuesday, September 24, 2019

  Actual Average Record
Temperature  
Mean Temperature 74 °F -  
Max Temperature 82 °F 93 °F 102 °F (2002)
Min Temperature 66 °F 66 °F 53 °F (2016)
Cooling Degree Days 9    
Growing Degree Days 24 (Base 50)    
Moisture  
Dew Point 60 °F    
Average Humidity 61    
Maximum Humidity 90    
Minimum Humidity 42    
Precipitation  
Precipitation 0.04 in - - ()
Sea Level Pressure  
Sea Level Pressure 29.88 in    
Wind  
Wind Speed 9 mph ()    
Max Wind Speed 17 mph    
Max Gust Speed 21 mph    
Visibility 10.0 miles    
Events Rain    
Averages and records for this station are not official NWS values.
T = Trace of Precipitation, MM = Missing Value Source: Averaged Metar Reports

Daily Weather History Graph

Daily Weather History Graph

Search for Another Location

Airport or City:

Astronomy

Sep. 24, 2019 Rise Set
Actual Time 6:16 AM MST 6:21 PM MST
Civil Twilight 5:51 AM MST 6:45 PM MST
Nautical Twilight 5:23 AM MST 7:14 PM MST
Astronomical Twilight 4:54 AM MST 7:43 PM MST
Moon 1:24 AM MST (9/24) 3:52 PM MST (9/24)
Length of Visible Light 12h 54m
Length of Day
12h 04m
Waning Crescent, 22% of the Moon is Illuminated
Sep 24
Waning Crescent
Sep 28
New
Oct 5
First Quarter
Oct 13
Full
Oct 21
Last Quarter

Hourly Weather History & Observations

Time (MST) Temp. Heat Index Dew Point Humidity Pressure Visibility Wind Dir Wind Speed Gust Speed Precip Events Conditions
12:56 AM 75.0 °F - 57.0 °F 53% 29.96 in 10.0 mi NNW 17.3 mph 20.7 mph N/A   Overcast
1:56 AM 70.0 °F - 59.0 °F 68% 29.94 in 10.0 mi North 6.9 mph - N/A   Partly Cloudy
2:56 AM 69.1 °F - 59.0 °F 70% 29.91 in 10.0 mi North 9.2 mph - N/A   Clear
3:56 AM 71.1 °F - 57.9 °F 63% 29.92 in 10.0 mi NNW 4.6 mph - N/A   Clear
4:56 AM 71.1 °F - 57.0 °F 61% 29.88 in 10.0 mi North 16.1 mph - 0.00 in Rain Light Rain
5:56 AM 71.1 °F - 57.9 °F 63% 29.92 in 10.0 mi NE 8.1 mph - 0.00 in Rain Light Rain
6:56 AM 66.0 °F - 62.1 °F 87% 29.94 in 10.0 mi WSW 10.4 mph - 0.02 in Rain Light Rain
7:56 AM 66.0 °F - 63.0 °F 90% 29.97 in 10.0 mi NW 6.9 mph - 0.01 in   Clear
8:56 AM 66.9 °F - 62.1 °F 84% 29.96 in 10.0 mi East 11.5 mph - N/A Rain Light Rain
9:56 AM 69.1 °F - 64.0 °F 84% 29.95 in 10.0 mi Variable 5.8 mph - 0.01 in   Clear
10:56 AM 72.0 °F - 63.0 °F 73% 29.94 in 10.0 mi NE 10.4 mph - N/A   Clear
11:56 AM 75.9 °F - 62.1 °F 62% 29.91 in 10.0 mi ENE 11.5 mph - N/A   Clear
12:56 PM 79.0 °F - 60.1 °F 52% 29.87 in 10.0 mi NE 9.2 mph - N/A   Clear
1:56 PM 81.0 °F 81.6 °F 60.1 °F 49% 29.86 in 10.0 mi ENE 10.4 mph - N/A   Clear
2:56 PM 82.9 °F 82.8 °F 59.0 °F 44% 29.83 in 10.0 mi East 9.2 mph - N/A   Clear
3:56 PM 82.9 °F 82.6 °F 57.9 °F 42% 29.82 in 10.0 mi ENE 6.9 mph - N/A   Clear
4:56 PM 82.0 °F 82.0 °F 57.9 °F 44% 29.82 in 10.0 mi ENE 8.1 mph - N/A   Clear
5:56 PM 82.0 °F 82.0 °F 57.9 °F 44% 29.81 in 10.0 mi ENE 9.2 mph - N/A   Clear
6:56 PM 78.1 °F - 57.9 °F 50% 29.82 in 10.0 mi ENE 13.8 mph - N/A   Clear
7:56 PM 77.0 °F - 59.0 °F 54% 29.83 in 10.0 mi ENE 13.8 mph - N/A   Clear
8:56 PM 77.0 °F - 59.0 °F 54% 29.83 in 10.0 mi ENE 15.0 mph - N/A   Partly Cloudy
9:56 PM 77.0 °F - 57.9 °F 52% 29.83 in 10.0 mi East 12.7 mph - N/A   Mostly Cloudy
10:56 PM 73.9 °F - 60.1 °F 62% 29.83 in 10.0 mi ESE 8.1 mph - N/A   Scattered Clouds
11:56 PM 73.9 °F - 60.1 °F 62% 29.83 in 10.0 mi ESE 5.8 mph - N/A   Partly Cloudy